QPF
0.00 0.00 0.00 0.00 0.00 0.00 0.00 0.00 0.00 0.00 0.00 0.00 0.00 0.00 0.00 0.00 0.00 0.00 0.00 0.00 0.00 0.00 0.00 0.00 0.00 0.00 0.00 0.00 0.00 0.00 0.00 0.00 0.00 0.00 0.00 0.00 0.00 0.01 0.01 0.01 0.01 0.02 0.03 0.04
0.00 0.00 0.00 0.00 0.00 0.00 0.00 0.00 0.00 0.00 0.00 0.00 0.00 0.00 0.00 0.00 0.00 0.00 0.00 0.00 0.00 0.00 0.00 0.00 0.00 0.00 0.00 0.00 0.00 0.00 0.00 0.00 0.00 0.00 0.00 0.00 0.00 0.01 0.01 0.01 0.02 0.04 0.05 0.06
0.00 0.00 0.00 0.00 0.00 0.00 0.00 0.00 0.00 0.00 0.00 0.00 0.00 0.00 0.00 0.00 0.00 0.00 0.00 0.00 0.00 0.00 0.00 0.00 0.00 0.00 0.00 0.00 0.00 0.00 0.00 0.01 0.01 0.01 0.00 0.01 0.01 0.01 0.01 0.02 0.03 0.03 0.03 0.04
0.00 0.00 0.00 0.00 0.00 0.00 0.00 0.00 0.00 0.00 0.00 0.00 0.00 0.00 0.00 0.00 0.00 0.00 0.00 0.00 0.00 0.00 0.00 0.00 0.00 0.00 0.00 0.00 0.00 0.00 0.00 0.01 0.02 0.02 0.01 0.01 0.01 0.01 0.01 0.01 0.02 0.01 0.01 0.02
0.00 0.00 0.00 0.00 0.00 0.00 0.00 0.00 0.00 0.00 0.00 0.00 0.00 0.00 0.00 0.00 0.00 0.00 0.00 0.00 0.00 0.00 0.00 0.00 0.00 0.00 0.00 0.00 0.00 0.00 0.00 0.01 0.01 0.03 0.03 0.01 0.01 0.01 0.01 0.01 0.01 0.00 0.01 0.01
0.00 0.00 0.00 0.00 0.00 0.00 0.00 0.00 0.00 0.00 0.00 0.00 0.00 0.00 0.00 0.00 0.00 0.00 0.00 0.00 0.00 0.00 0.00 0.00 0.00 0.00 0.00 0.00 0.00 0.00 0.00 0.00 0.01 0.02 0.02 0.02 0.02 0.01 0.01 0.00 0.00 0.00 0.01 0.01
0.00 0.00 0.00 0.00 0.00 0.00 0.00 0.00 0.01 0.00 0.00 0.00 0.00 0.00 0.00 0.00 0.00 0.00 0.00 0.00 0.00 0.00 0.00 0.00 0.00 0.00 0.00 0.00 0.00 0.00 0.00 0.00 0.00 0.01 0.01 0.01 0.01 0.01 0.01 0.00 0.00 0.01 0.01 0.02
0.01 0.01 0.00 0.00 0.00 0.00 0.00 0.00 0.00 0.00 0.00 0.00 0.00 0.00 0.00 0.00 0.00 0.00 0.00 0.00 0.00 0.00 0.00 0.00 0.00 0.00 0.00 0.00 0.00 0.00 0.00 0.00 0.00 0.00 0.01 0.01 0.02 0.02 0.01 0.01 0.01 0.01 0.02 0.02
0.03 0.01 0.00 0.00 0.00 0.00 0.00 0.00 0.00 0.01 0.00 0.00 0.00 0.00 0.00 0.00 0.00 0.00 0.00 0.00 0.00 0.00 0.00 0.00 0.00 0.00 0.00 0.00 0.01 0.01 0.01 0.01 0.01 0.01 0.01 0.03 0.04 0.03 0.02 0.01 0.02 0.02 0.03 0.03
0.05 0.03 0.01 0.00 0.01 0.01 0.00 0.01 0.01 0.01 0.01 0.00 0.00 0.00 0.00 0.00 0.00 0.00 0.00 0.00 0.00 0.00 0.00 0.00 0.00 0.00 0.00 0.00 0.00 0.00 0.01 0.01 0.01 0.01 0.02 0.02 0.03 0.03 0.02 0.02 0.02 0.02 0.02 0.02
0.04 0.04 0.02 0.01 0.01 0.01 0.01 0.01 0.01 0.01 0.01 0.00 0.00 0.00 0.00 0.00 0.00 0.00 0.00 0.00 0.00 0.00 0.00 0.00 0.00 0.00 0.00 0.00 0.00 0.00 0.00 0.00 0.00 0.00 0.01 0.01 0.01 0.02 0.02 0.02 0.01 0.01 0.01 0.01
0.04 0.05 0.03 0.01 0.01 0.01 0.01 0.01 0.02 0.03 0.02 0.01 0.00 0.00 0.00 0.00 0.00 0.00 0.00 0.00 0.00 0.00 0.00 0.00 0.00 0.00 0.00 0.00 0.00 0.00 0.00 0.00 0.00 0.00 0.00 0.01 0.02 0.03 0.03 0.02 0.01 0.01 0.01 0.01
0.06 0.07 0.05 0.04 0.03 0.03 0.02 0.02 0.02 0.03 0.03 0.01 0.01 0.00 0.00 0.00 0.00 0.00 0.00 0.00 0.00 0.00 0.00 0.00 0.00 0.00 0.00 0.00 0.00 0.00 0.00 0.00 0.00 0.00 0.00 0.02 0.04 0.04 0.03 0.03 0.02 0.01 0.02 0.03
0.05 0.07 0.06 0.04 0.04 0.04 0.03 0.02 0.02 0.03 0.03 0.01 0.00 0.00 0.00 0.00 0.00 0.00 0.00 0.00 0.01 0.01 0.00 0.01 0.01 0.00 0.00 0.00 0.00 0.00 0.00 0.00 0.00 0.00 0.00 0.02 0.03 0.03 0.03 0.03 0.02 0.02 0.02 0.02
0.04 0.05 0.03 0.02 0.02 0.02 0.02 0.01 0.01 0.02 0.02 0.01 0.00 0.00 0.00 0.00 0.00 0.01 0.01 0.00 0.01 0.01 0.01 0.01 0.01 0.01 0.00 0.00 0.00 0.00 0.00 0.00 0.00 0.00 0.01 0.02 0.03 0.03 0.04 0.04 0.03 0.02 0.02 0.02
0.03 0.04 0.02 0.02 0.02 0.03 0.02 0.01 0.01 0.02 0.01 0.01 0.00 0.00 0.00 0.00 0.00 0.01 0.01 0.01 0.01 0.01 0.01 0.01 0.01 0.01 0.00 0.00 0.00 0.00 0.00 0.00 0.00 0.00 0.01 0.02 0.03 0.05 0.05 0.04 0.03 0.03 0.03 0.03
0.02 0.03 0.03 0.02 0.02 0.04 0.04 0.03 0.02 0.02 0.01 0.01 0.01 0.01 0.00 0.00 0.01 0.01 0.01 0.01 0.01 0.01 0.01 0.01 0.02 0.01 0.01 0.01 0.01 0.00 0.00 0.00 0.00 0.00 0.01 0.02 0.03 0.05 0.04 0.05 0.05 0.04 0.04 0.05
0.03 0.03 0.04 0.03 0.04 0.05 0.04 0.04 0.03 0.02 0.02 0.02 0.01 0.01 0.00 0.00 0.00 0.01 0.01 0.01 0.01 0.01 0.01 0.02 0.02 0.01 0.01 0.01 0.02 0.02 0.02 0.01 0.01 0.01 0.02 0.03 0.03 0.04 0.04 0.05 0.06 0.05 0.05 0.05
0.03 0.04 0.05 0.05 0.04 0.04 0.03 0.02 0.03 0.03 0.03 0.02 0.01 0.01 0.01 0.00 0.00 0.00 0.00 0.01 0.01 0.01 0.02 0.02 0.02 0.02 0.02 0.01 0.02 0.02 0.03 0.04 0.04 0.03 0.03 0.04 0.04 0.04 0.05 0.04 0.06 0.06 0.05 0.06
0.03 0.04 0.05 0.05 0.04 0.04 0.04 0.02 0.02 0.03 0.05 0.03 0.02 0.01 0.01 0.00 0.01 0.00 0.00 0.01 0.01 0.01 0.01 0.02 0.02 0.03 0.03 0.02 0.01 0.03 0.04 0.05 0.05 0.03 0.03 0.04 0.04 0.04 0.04 0.04 0.06 0.07 0.06 0.06
0.04 0.05 0.05 0.04 0.04 0.04 0.03 0.02 0.02 0.04 0.05 0.02 0.02 0.02 0.01 0.01 0.01 0.01 0.00 0.01 0.01 0.01 0.01 0.01 0.02 0.02 0.03 0.02 0.02 0.03 0.04 0.05 0.06 0.06 0.05 0.04 0.04 0.04 0.05 0.06 0.06 0.07 0.07 0.07
0.03 0.03 0.03 0.03 0.03 0.03 0.01 0.01 0.02 0.03 0.02 0.02 0.01 0.02 0.01 0.01 0.00 0.00 0.00 0.00 0.01 0.01 0.01 0.01 0.01 0.01 0.01 0.02 0.02 0.03 0.03 0.05 0.07 0.07 0.06 0.06 0.07 0.07 0.08 0.08 0.07 0.07 0.07 0.08
0.03 0.04 0.03 0.03 0.03 0.02 0.02 0.02 0.03 0.03 0.03 0.02 0.02 0.02 0.01 0.01 0.00 0.00 0.00 0.00 0.01 0.01 0.01 0.02 0.02 0.01 0.01 0.01 0.01 0.03 0.04 0.04 0.06 0.07 0.06 0.07 0.08 0.09 0.09 0.09 0.07 0.07 0.07 0.07
0.02 0.02 0.02 0.02 0.02 0.02 0.02 0.02 0.02 0.03 0.03 0.03 0.03 0.02 0.02 0.01 0.01 0.00 0.01 0.01 0.00 0.01 0.01 0.01 0.03 0.02 0.02 0.02 0.02 0.02 0.04 0.04 0.05 0.06 0.06 0.06 0.06 0.07 0.08 0.08 0.07 0.06 0.06 0.05
0.02 0.02 0.02 0.02 0.01 0.01 0.01 0.02 0.02 0.02 0.02 0.03 0.03 0.03 0.02 0.02 0.01 0.01 0.01 0.01 0.01 0.00 0.01 0.01 0.02 0.02 0.02 0.02 0.02 0.02 0.04 0.05 0.05 0.05 0.05 0.05 0.06 0.06 0.06 0.06 0.07 0.06 0.05 0.05
0.02 0.02 0.02 0.02 0.02 0.02 0.02 0.02 0.02 0.02 0.02 0.03 0.03 0.03 0.03 0.02 0.02 0.01 0.01 0.01 0.01 0.01 0.01 0.01 0.02 0.02 0.01 0.02 0.02 0.03 0.03 0.04 0.04 0.05 0.05 0.06 0.07 0.06 0.05 0.05 0.05 0.05 0.04 0.04
MSLP
1008.52 1008.59 1008.63 1008.69 1008.80 1008.97 1009.19 1009.44 1009.67 1009.82 1009.85 1009.73 1009.47 1009.10 1008.67 1008.27 1007.96 1007.81 1007.88 1008.17 1008.66 1009.34 1010.13 1010.99 1011.87 1012.72 1013.51 1014.24 1014.91 1015.52 1016.08 1016.61 1017.11 1017.58 1018.03 1018.44 1018.81 1019.13 1019.41 1019.63 1019.79 1019.89 1019.94 1019.94
1008.14 1008.20 1008.25 1008.33 1008.48 1008.72 1009.03 1009.36 1009.64 1009.82 1009.84 1009.66 1009.30 1008.80 1008.22 1007.66 1007.22 1006.97 1006.96 1007.21 1007.70 1008.40 1009.25 1010.18 1011.12 1012.04 1012.90 1013.69 1014.41 1015.07 1015.69 1016.26 1016.81 1017.32 1017.80 1018.25 1018.65 1019.01 1019.31 1019.56 1019.75 1019.88 1019.96 1019.98
1007.68 1007.79 1007.89 1008.04 1008.28 1008.61 1009.00 1009.39 1009.70 1009.87 1009.82 1009.54 1009.04 1008.37 1007.62 1006.91 1006.33 1005.97 1005.89 1006.11 1006.61 1007.34 1008.24 1009.23 1010.24 1011.23 1012.15 1013.01 1013.80 1014.52 1015.19 1015.82 1016.42 1016.99 1017.51 1018.00 1018.43 1018.81 1019.14 1019.41 1019.62 1019.78 1019.88 1019.94
1007.12 1007.32 1007.52 1007.79 1008.14 1008.57 1009.04 1009.47 1009.79 1009.90 1009.75 1009.33 1008.66 1007.81 1006.89 1006.02 1005.32 1004.87 1004.74 1004.95 1005.46 1006.22 1007.17 1008.21 1009.28 1010.33 1011.32 1012.24 1013.09 1013.88 1014.62 1015.32 1015.98 1016.60 1017.17 1017.69 1018.16 1018.56 1018.90 1019.19 1019.43 1019.61 1019.74 1019.83
1006.45 1006.75 1007.09 1007.49 1007.98 1008.52 1009.06 1009.53 1009.82 1009.85 1009.58 1009.00 1008.16 1007.14 1006.06 1005.06 1004.26 1003.76 1003.61 1003.81 1004.35 1005.15 1006.14 1007.22 1008.34 1009.43 1010.47 1011.44 1012.35 1013.20 1014.00 1014.77 1015.50 1016.17 1016.80 1017.36 1017.85 1018.28 1018.64 1018.95 1019.20 1019.41 1019.57 1019.69
1005.65 1006.07 1006.53 1007.08 1007.69 1008.35 1008.97 1009.45 1009.71 1009.66 1009.27 1008.55 1007.56 1006.40 1005.20 1004.11 1003.26 1002.73 1002.58 1002.81 1003.38 1004.21 1005.22 1006.34 1007.48 1008.59 1009.66 1010.66 1011.61 1012.52 1013.39 1014.22 1015.01 1015.74 1016.41 1017.02 1017.54 1017.99 1018.37 1018.69 1018.97 1019.20 1019.40 1019.55
1004.77 1005.26 1005.83 1006.50 1007.24 1007.99 1008.67 1009.18 1009.41 1009.30 1008.82 1007.99 1006.90 1005.64 1004.38 1003.26 1002.40 1001.89 1001.77 1002.03 1002.63 1003.48 1004.51 1005.62 1006.76 1007.87 1008.94 1009.96 1010.93 1011.88 1012.80 1013.68 1014.53 1015.32 1016.04 1016.68 1017.23 1017.70 1018.11 1018.45 1018.75 1019.02 1019.24 1019.43
1003.85 1004.37 1005.01 1005.77 1006.59 1007.42 1008.16 1008.68 1008.90 1008.75 1008.22 1007.34 1006.21 1004.93 1003.67 1002.57 1001.76 1001.30 1001.22 1001.53 1002.15 1003.00 1004.02 1005.11 1006.21 1007.29 1008.33 1009.34 1010.33 1011.30 1012.25 1013.18 1014.08 1014.91 1015.67 1016.35 1016.93 1017.43 1017.86 1018.23 1018.56 1018.86 1019.12 1019.33
1002.98 1003.47 1004.13 1004.93 1005.81 1006.69 1007.46 1008.00 1008.22 1008.06 1007.53 1006.65 1005.54 1004.31 1003.11 1002.09 1001.36 1000.98 1000.97 1001.31 1001.93 1002.77 1003.74 1004.77 1005.81 1006.83 1007.83 1008.81 1009.78 1010.77 1011.75 1012.72 1013.65 1014.53 1015.32 1016.03 1016.64 1017.16 1017.61 1018.02 1018.38 1018.71 1019.01 1019.26
1002.23 1002.66 1003.29 1004.09 1004.97 1005.86 1006.64 1007.19 1007.42 1007.28 1006.77 1005.95 1004.92 1003.79 1002.71 1001.81 1001.19 1000.90 1000.96 1001.32 1001.93 1002.73 1003.62 1004.57 1005.52 1006.46 1007.39 1008.33 1009.29 1010.28 1011.28 1012.28 1013.24 1014.15 1014.98 1015.71 1016.35 1016.90 1017.38 1017.80 1018.20 1018.57 1018.90 1019.17
1001.69 1002.03 1002.60 1003.35 1004.20 1005.06 1005.81 1006.34 1006.57 1006.45 1006.00 1005.27 1004.35 1003.36 1002.43 1001.69 1001.19 1001.00 1001.11 1001.48 1002.06 1002.79 1003.59 1004.43 1005.28 1006.13 1007.00 1007.89 1008.83 1009.81 1010.83 1011.85 1012.85 1013.79 1014.65 1015.41 1016.06 1016.63 1017.13 1017.59 1018.01 1018.40 1018.76 1019.05
1001.38 1001.65 1002.13 1002.80 1003.58 1004.36 1005.05 1005.53 1005.74 1005.63 1005.23 1004.59 1003.80 1002.97 1002.20 1001.61 1001.25 1001.15 1001.30 1001.68 1002.22 1002.86 1003.57 1004.30 1005.04 1005.80 1006.60 1007.45 1008.37 1009.36 1010.39 1011.45 1012.48 1013.45 1014.33 1015.11 1015.79 1016.38 1016.89 1017.36 1017.80 1018.20 1018.57 1018.87
1001.32 1001.51 1001.91 1002.48 1003.15 1003.82 1004.40 1004.80 1004.94 1004.83 1004.46 1003.90 1003.23 1002.55 1001.94 1001.49 1001.26 1001.24 1001.44 1001.81 1002.30 1002.87 1003.48 1004.11 1004.76 1005.45 1006.19 1007.01 1007.93 1008.92 1009.98 1011.06 1012.12 1013.13 1014.04 1014.84 1015.53 1016.13 1016.66 1017.13 1017.57 1017.97 1018.33 1018.62
1001.43 1001.57 1001.89 1002.36 1002.89 1003.42 1003.86 1004.13 1004.19 1004.02 1003.66 1003.16 1002.59 1002.03 1001.57 1001.26 1001.14 1001.20 1001.44 1001.81 1002.27 1002.78 1003.31 1003.86 1004.45 1005.08 1005.79 1006.60 1007.51 1008.52 1009.60 1010.71 1011.81 1012.84 1013.78 1014.61 1015.31 1015.92 1016.44 1016.90 1017.32 1017.70 1018.03 1018.30
1001.63 1001.74 1001.99 1002.34 1002.73 1003.10 1003.37 1003.49 1003.43 1003.19 1002.81 1002.34 1001.84 1001.39 1001.05 1000.87 1000.85 1001.00 1001.29 1001.67 1002.12 1002.59 1003.08 1003.59 1004.13 1004.73 1005.43 1006.23 1007.16 1008.19 1009.29 1010.43 1011.55 1012.61 1013.57 1014.42 1015.13 1015.74 1016.25 1016.69 1017.07 1017.41 1017.70 1017.91
1001.82 1001.90 1002.08 1002.32 1002.57 1002.76 1002.85 1002.81 1002.62 1002.30 1001.89 1001.43 1000.99 1000.64 1000.41 1000.34 1000.43 1000.66 1001.00 1001.43 1001.89 1002.36 1002.84 1003.34 1003.87 1004.47 1005.17 1005.98 1006.91 1007.96 1009.08 1010.23 1011.37 1012.45 1013.42 1014.27 1015.00 1015.59 1016.09 1016.49 1016.83 1017.11 1017.33 1017.47
1001.90 1001.94 1002.05 1002.17 1002.28 1002.31 1002.24 1002.05 1001.74 1001.34 1000.90 1000.46 1000.08 999.81 999.68 999.73 999.92 1000.25 1000.67 1001.15 1001.65 1002.16 1002.66 1003.18 1003.73 1004.34 1005.05 1005.88 1006.82 1007.86 1008.98 1010.13 1011.27 1012.34 1013.32 1014.17 1014.89 1015.48 1015.94 1016.31 1016.60 1016.81 1016.95 1017.01
1001.78 1001.78 1001.80 1001.81 1001.78 1001.68 1001.47 1001.17 1000.78 1000.33 999.88 999.47 999.16 998.99 998.97 999.13 999.43 999.86 1000.37 1000.92 1001.49 1002.06 1002.61 1003.17 1003.76 1004.40 1005.13 1005.96 1006.89 1007.92 1009.01 1010.14 1011.25 1012.30 1013.26 1014.09 1014.80 1015.37 1015.81 1016.13 1016.36 1016.50 1016.57 1016.55
1001.47 1001.38 1001.30 1001.21 1001.07 1000.85 1000.56 1000.19 999.76 999.31 998.90 998.56 998.34 998.27 998.37 998.63 999.05 999.58 1000.18 1000.82 1001.47 1002.11 1002.73 1003.35 1003.99 1004.66 1005.41 1006.23 1007.14 1008.13 1009.18 1010.25 1011.30 1012.31 1013.22 1014.03 1014.70 1015.25 1015.66 1015.94 1016.12 1016.20 1016.20 1016.11
1000.98 1000.79 1000.60 1000.41 1000.18 999.89 999.55 999.16 998.75 998.36 998.02 997.78 997.67 997.72 997.94 998.32 998.85 999.47 1000.17 1000.89 1001.63 1002.34 1003.04 1003.72 1004.41 1005.12 1005.87 1006.68 1007.56 1008.49 1009.46 1010.46 1011.43 1012.36 1013.21 1013.97 1014.60 1015.11 1015.48 1015.73 1015.87 1015.90 1015.84 1015.70
1000.41 1000.09 999.79 999.50 999.20 998.88 998.54 998.18 997.84 997.54 997.31 997.20 997.23 997.41 997.75 998.24 998.85 999.57 1000.34 1001.14 1001.95 1002.74 1003.50 1004.25 1004.99 1005.73 1006.49 1007.28 1008.11 1008.97 1009.86 1010.75 1011.63 1012.46 1013.23 1013.91 1014.49 1014.95 1015.29 1015.51 1015.61 1015.61 1015.51 1015.33
999.85 999.41 999.01 998.64 998.29 997.95 997.63 997.34 997.10 996.92 996.83 996.87 997.03 997.34 997.79 998.37 999.07 999.85 1000.68 1001.54 1002.41 1003.26 1004.09 1004.90 1005.68 1006.45 1007.22 1008.00 1008.78 1009.57 1010.36 1011.15 1011.91 1012.63 1013.30 1013.89 1014.40 1014.80 1015.10 1015.28 1015.36 1015.33 1015.20 1015.00
999.44 998.88 998.39 997.95 997.56 997.23 996.95 996.74 996.60 996.56 996.62 996.79 997.09 997.52 998.06 998.72 999.47 1000.30 1001.17 1002.07 1002.98 1003.88 1004.76 1005.62 1006.45 1007.25 1008.03 1008.79 1009.53 1010.25 1010.95 1011.63 1012.27 1012.88 1013.44 1013.93 1014.35 1014.69 1014.94 1015.08 1015.13 1015.08 1014.94 1014.72
999.27 998.63 998.06 997.57 997.15 996.82 996.59 996.45 996.42 996.49 996.68 996.98 997.40 997.92 998.54 999.25 1000.04 1000.89 1001.77 1002.69 1003.62 1004.56 1005.48 1006.38 1007.25 1008.08 1008.88 1009.63 1010.34 1011.00 1011.62 1012.20 1012.73 1013.22 1013.67 1014.06 1014.39 1014.65 1014.84 1014.94 1014.95 1014.88 1014.73 1014.50
999.43 998.74 998.12 997.58 997.14 996.82 996.61 996.53 996.58 996.75 997.04 997.45 997.95 998.54 999.22 999.96 1000.76 1001.61 1002.50 1003.41 1004.35 1005.29 1006.24 1007.17 1008.07 1008.93 1009.74 1010.50 1011.18 1011.80 1012.36 1012.85 1013.28 1013.66 1014.00 1014.28 1014.52 1014.70 1014.82 1014.87 1014.85 1014.75 1014.57 1014.33
999.97 999.26 998.61 998.05 997.58 997.25 997.05 997.00 997.11 997.34 997.71 998.18 998.75 999.39 1000.10 1000.85 1001.65 1002.48 1003.35 1004.25 1005.17 1006.11 1007.06 1008.00 1008.91 1009.79 1010.61 1011.36 1012.03 1012.62 1013.12 1013.54 1013.89 1014.18 1014.41 1014.60 1014.75 1014.85 1014.89 1014.88 1014.81 1014.68 1014.48 1014.21
Thickness
5580 5585 5592 5600 5601 5605 5608 5609 5613 5614 5609 5610 5618 5625 5632 5634 5634 5638 5642 5643 5643 5643 5642 5640 5638 5636 5635 5633 5632 5631 5629 5627 5625 5625 5624 5624 5624 5623 5622 5621 5618 5615 5613 5611
5570 5580 5590 5590 5588 5590 5594 5598 5603 5602 5599 5603 5611 5619 5629 5633 5634 5638 5640 5641 5641 5639 5637 5634 5633 5631 5630 5628 5626 5625 5624 5621 5619 5618 5617 5616 5616 5616 5615 5613 5610 5608 5606 5604
5574 5578 5578 5577 5577 5581 5586 5593 5598 5596 5592 5595 5600 5618 5630 5633 5632 5633 5636 5637 5638 5636 5634 5631 5628 5627 5625 5623 5621 5619 5617 5615 5613 5611 5609 5608 5608 5608 5607 5605 5603 5601 5599 5596
5561 5565 5565 5569 5573 5578 5581 5584 5584 5584 5588 5597 5596 5613 5632 5632 5629 5630 5632 5633 5634 5633 5631 5628 5624 5623 5620 5618 5615 5613 5611 5609 5607 5604 5604 5603 5603 5603 5601 5599 5596 5594 5591 5589
5553 5555 5558 5564 5570 5571 5573 5571 5573 5577 5581 5584 5591 5593 5626 5624 5626 5632 5633 5631 5630 5628 5626 5624 5621 5618 5615 5612 5609 5606 5604 5603 5601 5599 5598 5597 5596 5596 5594 5592 5590 5587 5585 5582
5542 5545 5551 5558 5558 5560 5558 5560 5562 5566 5572 5575 5594 5595 5620 5626 5629 5631 5630 5626 5624 5622 5620 5618 5615 5612 5609 5606 5602 5600 5598 5597 5595 5593 5592 5590 5589 5588 5587 5585 5583 5581 5578 5576
5533 5537 5539 5545 5547 5547 5553 5559 5559 5561 5564 5584 5586 5589 5614 5623 5622 5623 5622 5620 5618 5616 5614 5612 5609 5606 5603 5600 5597 5594 5593 5592 5589 5587 5586 5584 5582 5581 5579 5578 5576 5573 5571 5569
5528 5534 5535 5538 5548 5551 5553 5561 5567 5573 5584 5592 5572 5588 5612 5612 5611 5611 5612 5612 5610 5608 5607 5605 5603 5601 5598 5595 5592 5590 5588 5586 5583 5581 5580 5578 5576 5573 5572 5570 5568 5566 5564 5562
5520 5526 5525 5528 5534 5544 5544 5551 5559 5563 5565 5577 5589 5593 5601 5604 5604 5604 5604 5603 5602 5601 5599 5598 5596 5594 5592 5590 5587 5585 5582 5580 5578 5575 5573 5572 5569 5567 5565 5563 5561 5559 5557 5554
5504 5504 5513 5515 5522 5525 5537 5544 5543 5552 5563 5578 5590 5592 5603 5599 5600 5599 5597 5596 5595 5593 5592 5590 5589 5587 5585 5583 5580 5578 5576 5574 5572 5569 5567 5565 5562 5560 5557 5555 5553 5552 5550 5548
5489 5493 5498 5507 5518 5527 5524 5527 5537 5547 5557 5574 5586 5596 5597 5595 5592 5591 5590 5588 5586 5585 5584 5583 5581 5579 5577 5575 5573 5571 5570 5568 5565 5562 5559 5557 5554 5552 5549 5547 5546 5544 5543 5541
5479 5487 5491 5502 5506 5511 5520 5528 5532 5541 5543 5553 5572 5584 5582 5582 5580 5579 5579 5578 5577 5576 5576 5575 5573 5571 5570 5569 5567 5564 5562 5560 5558 5555 5552 5549 5546 5544 5541 5539 5537 5536 5535 5534
5467 5472 5482 5495 5495 5494 5501 5510 5517 5523 5533 5546 5561 5574 5570 5571 5570 5569 5569 5569 5568 5567 5566 5566 5565 5563 5562 5561 5559 5557 5554 5552 5549 5547 5545 5542 5539 5536 5534 5531 5529 5528 5527 5527
5464 5465 5480 5496 5505 5499 5495 5501 5505 5514 5527 5540 5554 5566 5565 5561 5560 5559 5559 5559 5560 5558 5557 5557 5556 5555 5554 5553 5552 5550 5548 5545 5542 5539 5537 5535 5532 5529 5526 5523 5521 5520 5520 5520
5455 5460 5464 5472 5480 5489 5496 5502 5503 5508 5525 5535 5549 5550 5555 5553 5550 5549 5549 5549 5549 5549 5548 5548 5548 5548 5547 5546 5544 5543 5540 5537 5534 5532 5530 5527 5523 5520 5517 5515 5514 5514 5514 5514
5444 5449 5455 5462 5472 5480 5487 5496 5502 5506 5515 5523 5530 5537 5541 5538 5538 5539 5540 5540 5541 5541 5540 5539 5539 5539 5539 5538 5537 5535 5533 5530 5527 5525 5522 5519 5516 5513 5510 5509 5509 5509 5509 5508
5435 5439 5452 5465 5464 5473 5489 5493 5493 5499 5509 5514 5519 5528 5523 5524 5527 5530 5531 5531 5532 5532 5531 5531 5530 5530 5531 5531 5530 5528 5526 5523 5521 5519 5516 5512 5509 5506 5505 5504 5504 5504 5503 5503
5428 5434 5443 5451 5458 5471 5493 5488 5492 5493 5496 5498 5506 5510 5512 5515 5518 5521 5522 5522 5523 5524 5524 5523 5523 5523 5523 5523 5523 5521 5519 5517 5515 5512 5509 5506 5503 5501 5499 5498 5498 5498 5497 5497
5427 5430 5438 5448 5462 5481 5481 5474 5476 5482 5489 5490 5495 5498 5499 5499 5507 5514 5512 5511 5512 5513 5514 5514 5514 5514 5515 5515 5514 5513 5512 5510 5508 5506 5503 5500 5498 5496 5494 5493 5493 5492 5491 5491
5418 5424 5433 5440 5456 5469 5478 5469 5471 5479 5487 5487 5487 5489 5489 5490 5502 5510 5501 5500 5502 5503 5503 5504 5505 5506 5507 5507 5506 5506 5505 5504 5502 5499 5497 5495 5492 5490 5489 5488 5486 5485 5484 5484
5411 5416 5424 5435 5449 5463 5460 5455 5464 5475 5483 5479 5480 5481 5481 5485 5490 5490 5489 5490 5492 5493 5493 5494 5496 5497 5498 5498 5499 5499 5498 5496 5494 5492 5490 5488 5486 5484 5483 5481 5480 5478 5477 5476
5415 5419 5421 5429 5439 5452 5445 5447 5456 5464 5465 5468 5470 5471 5473 5475 5474 5475 5477 5479 5481 5482 5484 5485 5487 5488 5488 5489 5491 5491 5490 5487 5485 5483 5482 5480 5479 5477 5476 5475 5473 5471 5469 5468
5409 5417 5425 5429 5437 5436 5437 5441 5444 5449 5453 5457 5459 5460 5461 5463 5464 5465 5467 5469 5471 5472 5474 5475 5477 5478 5478 5480 5481 5482 5480 5478 5477 5476 5475 5473 5471 5469 5468 5468 5467 5465 5463 5460
5401 5400 5409 5417 5425 5425 5426 5429 5432 5436 5441 5444 5447 5449 5451 5453 5454 5455 5456 5458 5460 5462 5464 5465 5467 5469 5469 5470 5471 5470 5470 5470 5470 5469 5467 5466 5464 5463 5461 5459 5459 5457 5455 5454
5397 5395 5401 5410 5413 5416 5419 5420 5421 5425 5429 5431 5433 5436 5439 5441 5442 5444 5446 5448 5450 5452 5453 5455 5457 5458 5459 5459 5460 5460 5460 5461 5462 5461 5459 5457 5456 5455 5453 5451 5449 5449 5447 5447
5385 5390 5399 5410 5409 5410 5413 5412 5412 5415 5418 5420 5422 5424 5427 5430 5431 5433 5435 5437 5439 5441 5443 5445 5447 5448 5449 5449 5450 5450 5451 5452 5453 5452 5451 5449 5447 5446 5445 5444 5442 5439 5438 5437